When you browse on this site, cookies collect data to enhance your experience and personalize the content and advertising you see.
Visit our Privacy Policy to learn more. By continuing to use the site, you agree to this use of cookies and data.
  • In United Kingdom
  • List of Countries
  • For 7 days
  • Water Temperature
  • Weather Map
  • Weather Widgets
  • user-avatar
    Login

    Hourly Weather Bekes

    Today, 16 September, Monday

    Time Temperature Precipitation Wind Pressure Humidity
    00:00 +18°C° 0 mm 1 mps 758 mmHg 46%
    01:00 +18°C° 0 mm 1 mps 758 mmHg 52%
    02:00 +16°C° 0 mm 2 mps 758 mmHg 53%
    03:00 +16°C° 0 mm 2 mps 758 mmHg 55%
    04:00 +16°C° 0 mm 2 mps 757 mmHg 57%
    05:00 +17°C° 0 mm 2 mps 757 mmHg 55%
    06:00 +18°C° 0 mm 2 mps 757 mmHg 54%
    07:00 +18°C° 0 mm 3 mps 757 mmHg 52%
    08:00 +21°C° 0 mm 3 mps 757 mmHg 48%
    09:00 +24°C° 0 mm 3 mps 757 mmHg 45%
    10:00 +26°C° 0 mm 3 mps 756 mmHg 41%
    11:00 +27°C° 0 mm 3 mps 756 mmHg 39%
    12:00 +28°C° 0 mm 3 mps 755 mmHg 37%
    13:00 +30°C° 0 mm 3 mps 755 mmHg 34%
    14:00 +30°C° 0 mm 3 mps 754 mmHg 34%
    15:00 +30°C° 0 mm 3 mps 754 mmHg 35%
    16:00 +30°C° 0 mm 3 mps 753 mmHg 35%
    17:00 +28°C° 0 mm 3 mps 753 mmHg 40%
    18:00 +26°C° 0 mm 2 mps 753 mmHg 46%
    19:00 +24°C° 0 mm 2 mps 753 mmHg 51%
    20:00 +24°C° 0 mm 2 mps 753 mmHg 53%
    21:00 +23°C° 0 mm 2 mps 753 mmHg 56%
    22:00 +22°C° 0 mm 1 mps 753 mmHg 59%
    23:00 +21°C° 0.2 mm 2 mps 753 mmHg 60%

    Tomorrow, 17 September, Tuesday

    Time Temperature Precipitation Wind Pressure Humidity
    00:00 +20°C° 0.2 mm 2 mps 753 mmHg 62%
    01:00 +20°C° 0.2 mm 2 mps 753 mmHg 63%
    02:00 +20°C° 0.1 mm 2 mps 753 mmHg 62%
    03:00 +19°C° 0.1 mm 2 mps 753 mmHg 61%
    04:00 +20°C° 0.1 mm 1 mps 752 mmHg 60%
    05:00 +20°C° 0 mm 2 mps 752 mmHg 58%
    06:00 +20°C° 0 mm 2 mps 753 mmHg 57%
    07:00 +21°C° 0 mm 3 mps 753 mmHg 55%
    08:00 +24°C° 0 mm 3 mps 753 mmHg 51%
    09:00 +25°C° 0 mm 4 mps 753 mmHg 47%
    10:00 +26°C° 0 mm 5 mps 753 mmHg 43%
    11:00 +26°C° 0 mm 5 mps 753 mmHg 45%
    12:00 +25°C° 0 mm 5 mps 753 mmHg 47%
    13:00 +25°C° 0 mm 5 mps 752 mmHg 49%
    14:00 +23°C° 0 mm 5 mps 752 mmHg 51%
    15:00 +23°C° 0 mm 4 mps 752 mmHg 53%
    16:00 +23°C° 0 mm 4 mps 751 mmHg 55%
    17:00 +22°C° 0 mm 3 mps 751 mmHg 57%
    18:00 +21°C° 0 mm 2 mps 751 mmHg 59%
    19:00 +22°C° 0 mm 1 mps 752 mmHg 62%
    20:00 +20°C° 0 mm 2 mps 752 mmHg 63%
    21:00 +19°C° 0 mm 2 mps 752 mmHg 64%
    22:00 +19°C° 0 mm 2 mps 752 mmHg 66%
    23:00 +18°C° 0 mm 2 mps 752 mmHg 68%

    Day after tomorrow, 18 September, Wednesday

    Time Temperature Precipitation Wind Pressure Humidity
    00:00 +18°C° 0 mm 2 mps 752 mmHg 69%
    01:00 +18°C° 0 mm 2 mps 753 mmHg 71%
    02:00 +17°C° 0 mm 3 mps 753 mmHg 66%
    03:00 +15°C° 0 mm 4 mps 754 mmHg 61%
    04:00 +14°C° 0 mm 5 mps 754 mmHg 56%
    05:00 +14°C° 0 mm 5 mps 755 mmHg 54%
    06:00 +13°C° 0 mm 6 mps 756 mmHg 52%
    07:00 +13°C° 0 mm 6 mps 757 mmHg 50%
    08:00 +14°C° 0 mm 5 mps 757 mmHg 43%
    09:00 +15°C° 0 mm 5 mps 758 mmHg 37%
    10:00 +18°C° 0 mm 4 mps 758 mmHg 30%
    11:00 +18°C° 0 mm 4 mps 758 mmHg 28%
    12:00 +19°C° 0 mm 4 mps 758 mmHg 26%
    13:00 +20°C° 0 mm 4 mps 758 mmHg 23%
    14:00 +20°C° 0 mm 4 mps 758 mmHg 24%
    15:00 +20°C° 0 mm 4 mps 758 mmHg 24%
    16:00 +20°C° 0 mm 4 mps 757 mmHg 24%
    17:00 +18°C° 0 mm 3 mps 758 mmHg 28%
    18:00 +16°C° 0 mm 2 mps 758 mmHg 32%
    19:00 +15°C° 0 mm 2 mps 759 mmHg 37%
    20:00 +14°C° 0 mm 2 mps 759 mmHg 39%
    21:00 +13°C° 0 mm 2 mps 759 mmHg 42%
    22:00 +13°C° 0 mm 2 mps 759 mmHg 44%
    23:00 +12°C° 0 mm 2 mps 759 mmHg 46%

    19 September, Thursday

    Time Temperature Precipitation Wind Pressure Humidity
    00:00 +12°C° 0 mm 2 mps 759 mmHg 48%
    01:00 +11°C° 0 mm 1 mps 759 mmHg 50%
    02:00 +9°C° 0 mm 2 mps 759 mmHg 52%
    03:00 +9°C° 0 mm 2 mps 759 mmHg 53%
    04:00 +9°C° 0 mm 2 mps 759 mmHg 55%
    05:00 +9°C° 0 mm 2 mps 759 mmHg 53%
    06:00 +10°C° 0 mm 2 mps 759 mmHg 51%
    07:00 +12°C° 0 mm 2 mps 759 mmHg 49%
    08:00 +13°C° 0 mm 3 mps 759 mmHg 44%
    09:00 +16°C° 0 mm 3 mps 760 mmHg 39%
    10:00 +17°C° 0 mm 4 mps 760 mmHg 34%
    11:00 +18°C° 0 mm 4 mps 759 mmHg 32%
    12:00 +18°C° 0 mm 4 mps 759 mmHg 30%
    13:00 +19°C° 0 mm 4 mps 759 mmHg 28%
    14:00 +19°C° 0 mm 4 mps 759 mmHg 28%
    15:00 +19°C° 0 mm 4 mps 759 mmHg 29%
    16:00 +18°C° 0 mm 4 mps 759 mmHg 29%
    17:00 +17°C° 0 mm 4 mps 759 mmHg 35%
    18:00 +14°C° 0 mm 3 mps 759 mmHg 41%
    19:00 +12°C° 0 mm 3 mps 760 mmHg 48%
    20:00 +11°C° 0 mm 3 mps 760 mmHg 49%
    21:00 +11°C° 0 mm 3 mps 760 mmHg 50%
    22:00 +10°C° 0 mm 3 mps 760 mmHg 52%
    23:00 +10°C° 0 mm 2 mps 761 mmHg 55%

    20 September, Friday

    Time Temperature Precipitation Wind Pressure Humidity
    00:00 +9°C° 0 mm 2 mps 761 mmHg 58%
    01:00 +9°C° 0 mm 2 mps 761 mmHg 61%
    02:00 +8°C° 0 mm 2 mps 761 mmHg 62%
    03:00 +8°C° 0 mm 2 mps 761 mmHg 63%
    04:00 +8°C° 0 mm 2 mps 761 mmHg 64%
    05:00 +8°C° 0 mm 2 mps 761 mmHg 61%
    06:00 +9°C° 0 mm 2 mps 762 mmHg 59%
    07:00 +10°C° 0 mm 2 mps 762 mmHg 56%
    08:00 +12°C° 0 mm 3 mps 762 mmHg 48%
    09:00 +14°C° 0 mm 4 mps 762 mmHg 41%
    10:00 +17°C° 0 mm 4 mps 763 mmHg 33%
    11:00 +17°C° 0 mm 4 mps 762 mmHg 32%
    12:00 +18°C° 0 mm 4 mps 762 mmHg 31%
    13:00 +18°C° 0 mm 4 mps 762 mmHg 29%
    14:00 +18°C° 0 mm 4 mps 761 mmHg 30%
    15:00 +18°C° 0 mm 4 mps 761 mmHg 30%
    16:00 +18°C° 0 mm 4 mps 761 mmHg 30%
    17:00 +16°C° 0 mm 3 mps 762 mmHg 34%
    18:00 +13°C° 0 mm 3 mps 762 mmHg 39%
    19:00 +12°C° 0 mm 3 mps 762 mmHg 43%
    20:00 +11°C° 0 mm 3 mps 762 mmHg 45%
    21:00 +10°C° 0 mm 2 mps 763 mmHg 46%
    22:00 +10°C° 0 mm 2 mps 763 mmHg 48%
    23:00 +9°C° 0 mm 2 mps 763 mmHg 48%

    21 September, Saturday

    Time Temperature Precipitation Wind Pressure Humidity
    00:00 +9°C° 0 mm 2 mps 763 mmHg 49%
    01:00 +8°C° 0 mm 2 mps 763 mmHg 50%
    02:00 +9°C° 0 mm 1 mps 763 mmHg 50%
    03:00 +9°C° 0 mm 1 mps 763 mmHg 51%
    04:00 +8°C° 0 mm 1 mps 763 mmHg 52%
    05:00 +9°C° 0 mm 1 mps 763 mmHg 49%
    06:00 +10°C° 0 mm 1 mps 763 mmHg 46%
    07:00 +11°C° 0 mm 1 mps 763 mmHg 44%
    08:00 +14°C° 0 mm 1 mps 763 mmHg 39%
    09:00 +16°C° 0 mm 1 mps 763 mmHg 35%
    10:00 +19°C° 0 mm 1 mps 763 mmHg 30%
    11:00 +20°C° 0 mm 1 mps 763 mmHg 29%
    12:00 +20°C° 0 mm 1 mps 762 mmHg 27%
    13:00 +21°C° 0 mm 1 mps 762 mmHg 25%
    14:00 +21°C° 0 mm 1 mps 762 mmHg 26%
    15:00 +21°C° 0 mm 1 mps 761 mmHg 26%
    16:00 +21°C° 0 mm 1 mps 761 mmHg 26%
    17:00 +19°C° 0 mm 1 mps 761 mmHg 29%
    18:00 +18°C° 0 mm 1 mps 761 mmHg 32%
    19:00 +15°C° 0 mm 1 mps 761 mmHg 35%
    20:00 +14°C° 0 mm 1 mps 762 mmHg 37%
    21:00 +14°C° 0 mm 1 mps 762 mmHg 39%
    22:00 +13°C° 0 mm 1 mps 762 mmHg 41%
    23:00 +13°C° 0 mm 1 mps 762 mmHg 43%
    Show more